Tracking 29892 objects as of 21-Nov-2024
HD Live streaming from Space Station
objects crossing your sky now

ARIANE 1 DEB

Track ARIANE 1 DEB now!
10-day predictions


NORAD ID: 40780
Int'l Code: 1979-104AH
Perigee: 579.3 km
Apogee: 20,776.5 km
Inclination: 19.2 °
Period: 369.2 minutes
Semi major axis: 17048 km
RCS: Unknown
Launch date: December 24, 1979
Source: European Space Agency (ESA)
Launch site: FRENCH GUIANA (FRGUI)

Note: This is SATELLITE DEBRIS
Your satellite tracking list
Your tracking list is empty




NASA's NSSDC Master Catalog

Two Line Element Set (TLE):
1 40780U 79104AH  24321.16561812  .00000372  00000-0  18553-2 0  9998
2 40780  19.1967 320.4622 5923326  23.6522 355.0823  3.89994471308239
Source of the keplerian elements: AFSPC